Preview of NWS' New Version of Forecast
This preview is not operational and should not be used for support decisions.

Regional Weather Roundup (RWR)

Issued by Philadelphia/Mt Holly (PHI)

                            
000
ASUS41 KPHI 222312
RWRPHI

REGIONAL WEATHER ROUNDUP
NATIONAL WEATHER SERVICE MOUNT HOLLY NJ
700 PM EDT FRI MAR 22 2019

NOTE:  "FAIR" INDICATES FEW OR NO CLOUDS BELOW 12,000 FEET WITH NO
SIGNIFICANT WEATHER AND/OR OBSTRUCTIONS TO VISIBILITY.

 * = STATION DOES NOT REPORT PRECIPITATION (E.G. RAIN, SNOW, ETC.) 
        OR FOG.

NJZ015>026-230000-
SOUTHERN NEW JERSEY
  
CITY           SKY/WX    TMP DP  RH WIND       PRES   REMARKS
POMONA         FAIR      48  32  53 W22G35    29.54R                  
MILLVILLE      CLOUDY    47  32  56 W15G24    29.56R                  
MOUNT HOLLY    LGT RAIN  43  33  68 W18G26    29.54R                  
TRENTON        RAIN      39  33  79 NW21G32   29.53R WCI  29          

$$
NJZ001>014-230000-
NORTHERN NEW JERSEY
  
CITY           SKY/WX    TMP DP  RH WIND       PRES   REMARKS
SUSSEX         FAIR      43  29  57 W14G22    29.44R                  
ANDOVER*         N/A     40  30  67 NW8       29.47R WCI  34          
MORRISTOWN     PTCLDY    45  32  61 NW12G23   29.46R                  
NEWARK         FAIR      47  27  45 W18G30    29.44R                  
TETERBORO      FAIR      47  29  49 W15G24    29.41R                  
CALDWELL       FAIR      45  28  51 W16G25    29.45R                  
SOMERVILLE     LGT RAIN  43  32  65 W15G25    29.48R                  
ALLAIRE*       MOCLDY    46  29  51 W22G35    29.48R                  
TOMS RIVER*    CLOUDY    44  35  70 W16G30    29.51R                  

$$
PAZ043-044-047-054-055-060>062-066>071-230000-
EASTERN PENNSYLVANIA
  
CITY           SKY/WX    TMP DP  RH WIND       PRES   REMARKS
PHILADELPHIA   LGT RAIN  43  34  70 W23G31    29.58R                  
NORTH PHILA    MOCLDY    43  33  68 NW21G38   29.56R                  
BLUE BELL*     CLOUDY    37  34  87 W8G22     29.57R WCI  31          
DOYLESTOWN     LGT RAIN  37  34  89 NW10G18   29.52R WCI  30          
QUAKERTOWN*    MOCLDY    37  34  87 W8        29.53S WCI  31          
PERKASIE*      MOCLDY    37  36  93 W10G16    29.54R WCI  30          
POTTSTOWN      CLOUDY    38  33  82 W10G20    29.56R WCI  31          
LANCASTER      CLOUDY    44  31  60 W20G32    29.59R                  
COATESVILLE    FAIR      39  34  81 NW15G22   29.58R WCI  31          
READING        MOCLDY    40  35  83 W12       29.57R WCI  33          
ALLENTOWN      CLOUDY    42  32  67 W9        29.53R                  
MOUNT POCONO   FLURRIES  31  29  92 NW17G23   29.44R WCI  19          
HAZLETON       CLOUDY    34  30  86 W9        29.54R WCI  26          
LEHIGHTON      LGT RAIN  37  32  81 W10G16    29.55R WCI  30          
WILKES BARRE   MOCLDY    37  33  85 W5        29.51R WCI  33          

$$
DEZALL-MDZ008-012-015-019-020-230000-
DELAWARE AND EASTERN MARYLAND
  
CITY           SKY/WX    TMP DP  RH WIND       PRES   REMARKS
WILMINGTON     CLOUDY    43  31  62 NW18G32   29.60R                  
GEORGETOWN     FAIR      46  34  62 W9        29.62R                  
EASTON         PTCLDY    45  37  76 W14G23    29.68R                  
ABERDEEN       PTCLDY    46  36  66 W14G25    29.61                   
PATUXENT       FAIR      44  40  85 W12       29.69R                  
OCEAN CITY     LGT RAIN  40  37  89 W12G26    29.66F WCI  33          
WALLOPS ISLAND RAIN      41  37  86 NW18G35   29.71R FOG              
CAMBRIDGE      PTCLDY    43  37  81 W13G24    29.67R                  
SALISBURY      CLOUDY    39  38  96 SW8       29.66F WCI  33          

$$
PAZ001-021-NYZ056-072-MDZ011-DCZ001-230000-
OTHER NEARBY LOCATIONS
  
CITY           SKY/WX    TMP DP  RH WIND       PRES   REMARKS
HARRISBURG     MOCLDY    42  29  59 NW25G39   29.64R                  
STATE COLLEGE  MOCLDY    36  27  69 NW21G31   29.67R WCI  24          
WILLIAMSPORT   MOCLDY    39  30  70 W15G24    29.60R WCI  31          
BINGHAMTON     LGT SNOW  32  29  88 NW16G30   29.47R FOG     WCI  21  
NEW YORK CITY  FAIR      47  27  45 W10G25    29.44R                  
BALTIMORE      FAIR      45  28  51 W21G31    29.65R                  
WASHINGTON DC  MOCLDY    48  29  47 NW22G32   29.71R                  

$$